Tracking 28348 objects as of 8-Dec-2023
HD Live streaming from Space Station
objects crossing your sky now

STARLINK-30451

Track STARLINK-30451 now!
10-day predictions
STARLINK-30451 is classified as:


NORAD ID: 57905
Int'l Code: 2023-146Q
Perigee: 565.4 km
Apogee: 566.8 km
Inclination: 43.0 °
Period: 95.8 minutes
Semi major axis: 6937 km
RCS: Unknown
Launch date: September 20, 2023
Source: United States (US)
Launch site: AIR FORCE EASTERN TEST RANGE (AFETR)
Your satellite tracking list
Your tracking list is empty




NASA's NSSDC Master Catalog

Two Line Element Set (TLE):
1 57905U 23146Q   23342.16516281  .00023580  00000-0  17530-2 0  9992
2 57905  43.0003 102.1533 0000997 289.2024  70.8711 15.02573892 13285
Source of the keplerian elements: AFSPC